Fowler, IL

10:32 PM CST on February 10, 2016 (GMT -0600)
Quincy Regional-Baldwin

Weather History for KUIN - November, 2013

Change the Weather History Date:

Thursday, November 14, 2013

  Actual Average Record
Temperature  
Mean Temperature 44 °F 43 °F  
Max Temperature 53 °F 52 °F 75 °F (1960)
Min Temperature 34 °F 35 °F 9 °F (1940)
Degree Days  
Heating Degree Days 21 22  
Month to date heating degree days 300 261  
Since 1 July heating degree days 673 685  
Cooling Degree Days 0 0  
Month to date cooling degree days 0 0  
Year to date cooling degree days 1242 1093  
Moisture  
Dew Point 19 °F    
Average Humidity 42    
Maximum Humidity 56    
Minimum Humidity 28    
Precipitation  
Precipitation 0.00 in 0.11 in 1.03 in (1926)
Month to date precipitation 0.85 1.44  
Year to date precipitation 33.59 33.50  
Sea Level Pressure  
Sea Level Pressure 30.08 in    
Wind  
Wind Speed 15 mph (SSW)    
Max Wind Speed 21 mph    
Max Gust Speed 30 mph    
Visibility 10 miles    
Events      
T = Trace of Precipitation, MM = Missing Value Source: NWS Daily Summary

Daily Weather History Graph

Daily Weather History Graph

Search for Another Location

Airport or City:

Trip Planner

Search our weather history database for the weather conditions in past years. The results will help you decide how hot, cold, wet, or windy it might be!

Date:

Astronomy

Nov. 14, 2013 Rise Set
Actual Time 6:48 AM CST 4:49 PM CST
Civil Twilight 6:19 AM CST 5:18 PM CST
Nautical Twilight 5:47 AM CST 5:50 PM CST
Astronomical Twilight 5:15 AM CST 6:22 PM CST
Moon 3:10 PM CST (11/14) 3:44 AM CST (11/14)
Length of Visible Light 10h 58m
Length of Day
10h 00m
Waxing Gibbous, 92% of the Moon is Illuminated
Nov 14
Waxing Gibbous
Nov 17
Full
Nov 25
Last Quarter
Dec 2
New
Dec 9
First Quarter

Hourly Weather History & Observations

Time (CST) Temp. Windchill Dew Point Humidity Pressure Visibility Wind Dir Wind Speed Gust Speed Precip Events Conditions
12:54 AM 37.0 °F 28.1 °F 16.0 °F 42% 30.22 in 10.0 mi SSW 15.0 mph - N/A   Clear
1:54 AM 36.0 °F 26.3 °F 16.0 °F 44% 30.21 in 10.0 mi SSW 16.1 mph - N/A   Clear
2:54 AM 35.1 °F 24.8 °F 17.1 °F 48% 30.19 in 10.0 mi SSW 17.3 mph 24.2 mph N/A   Clear
3:54 AM 35.1 °F 25.2 °F 17.1 °F 48% 30.17 in 10.0 mi SSW 16.1 mph - N/A   Clear
4:54 AM 35.1 °F 24.5 °F 18.0 °F 50% 30.16 in 10.0 mi SSW 18.4 mph - N/A   Clear
5:54 AM 35.1 °F 25.2 °F 18.0 °F 50% 30.15 in 10.0 mi SSW 16.1 mph - N/A   Clear
6:54 AM 34.0 °F 23.8 °F 19.0 °F 54% 30.15 in 10.0 mi SSW 16.1 mph - N/A   Clear
7:54 AM 37.0 °F 27.0 °F 19.9 °F 50% 30.14 in 10.0 mi SSW 18.4 mph - N/A   Clear
8:54 AM 39.9 °F 30.5 °F 21.0 °F 47% 30.13 in 10.0 mi SSW 19.6 mph 27.6 mph N/A   Clear
9:54 AM 44.1 °F 35.7 °F 21.0 °F 40% 30.12 in 10.0 mi SW 20.7 mph 27.6 mph N/A   Clear
10:54 AM 48.0 °F - 21.9 °F 36% 30.10 in 10.0 mi SSW 18.4 mph 25.3 mph N/A   Clear
11:54 AM 50.0 °F - 21.9 °F 33% 30.07 in 10.0 mi SW 19.6 mph 25.3 mph N/A   Clear
12:54 PM 53.1 °F - 21.0 °F 29% 30.04 in 10.0 mi SSW 17.3 mph - N/A   Clear
1:54 PM 53.1 °F - 21.9 °F 30% 30.02 in 10.0 mi SSW 19.6 mph - N/A   Clear
2:54 PM 53.1 °F - 21.9 °F 30% 30.01 in 10.0 mi SSW 16.1 mph - N/A   Clear
3:54 PM 51.1 °F - 19.9 °F 29% 30.01 in 10.0 mi SSW 15.0 mph - N/A   Clear
4:54 PM 48.9 °F - 19.0 °F 31% 29.99 in 10.0 mi SSW 15.0 mph - N/A   Clear
5:54 PM 44.1 °F 38.6 °F 19.0 °F 37% 30.01 in 10.0 mi SSW 10.4 mph - N/A   Clear
6:54 PM 42.1 °F 37.7 °F 18.0 °F 38% 30.01 in 10.0 mi SW 6.9 mph - N/A   Clear
7:54 PM 44.1 °F 38.1 °F 18.0 °F 35% 30.00 in 10.0 mi South 11.5 mph - N/A   Clear
8:54 PM 44.1 °F 38.1 °F 19.0 °F 37% 30.00 in 10.0 mi SSW 11.5 mph - N/A   Clear
9:54 PM 44.1 °F 39.0 °F 19.0 °F 37% 30.01 in 10.0 mi SW 9.2 mph - N/A   Clear
10:54 PM 42.1 °F 36.6 °F 19.9 °F 41% 30.00 in 10.0 mi SW 9.2 mph - N/A   Clear
11:54 PM 44.1 °F 37.7 °F 21.0 °F 40% 30.00 in 10.0 mi SSW 12.7 mph - N/A   Clear